• în România
  • Lista ţărilor
  • Pe 7 zile
  • Temperatura apei
  • Hartă satelitară
  • Meteo pe hartă
  • Widget-uri
  • user-avatar
    Intrare

    Meteo pe oră la Luanda

    Astăzi, 26 Martie, Duminică

    Timp Temperatura Precipitaţii Vânt Presiune Umiditate
    00:00 +28°C° 0 mm 3 m/s 753 mmHg 89%
    01:00 +28°C° 0 mm 3 m/s 753 mmHg 90%
    02:00 +28°C° 0 mm 3 m/s 753 mmHg 89%
    03:00 +28°C° 0 mm 2 m/s 753 mmHg 88%
    04:00 +28°C° 0 mm 2 m/s 753 mmHg 87%
    05:00 +28°C° 0 mm 2 m/s 753 mmHg 87%
    06:00 +28°C° 0 mm 2 m/s 754 mmHg 87%
    07:00 +28°C° 0 mm 2 m/s 754 mmHg 87%
    08:00 +30°C° 0 mm 2 m/s 754 mmHg 78%
    09:00 +31°C° 0 mm 1 m/s 754 mmHg 69%
    10:00 +33°C° 0 mm 1 m/s 754 mmHg 61%
    11:00 +36°C° 0 mm 2 m/s 753 mmHg 56%
    12:00 +37°C° 0 mm 3 m/s 753 mmHg 50%
    13:00 +39°C° 0 mm 3 m/s 752 mmHg 45%
    14:00 +38°C° 0 mm 4 m/s 752 mmHg 50%
    15:00 +37°C° 0 mm 5 m/s 751 mmHg 54%
    16:00 +35°C° 0 mm 6 m/s 750 mmHg 59%
    17:00 +34°C° 0 mm 6 m/s 751 mmHg 65%
    18:00 +32°C° 0 mm 5 m/s 751 mmHg 71%
    19:00 +29°C° 0 mm 5 m/s 751 mmHg 77%
    20:00 +29°C° 0 mm 4 m/s 752 mmHg 79%
    21:00 +29°C° 0 mm 4 m/s 753 mmHg 81%
    22:00 +29°C° 0 mm 4 m/s 753 mmHg 84%
    23:00 +28°C° 0 mm 3 m/s 753 mmHg 85%

    Mâine, 27 Martie, Luni

    Timp Temperatura Precipitaţii Vânt Presiune Umiditate
    00:00 +28°C° 0 mm 3 m/s 753 mmHg 87%
    01:00 +28°C° 0 mm 3 m/s 753 mmHg 88%
    02:00 +28°C° 0 mm 2 m/s 753 mmHg 87%
    03:00 +28°C° 0 mm 2 m/s 752 mmHg 87%
    04:00 +28°C° 0 mm 2 m/s 752 mmHg 86%
    05:00 +28°C° 0 mm 2 m/s 752 mmHg 86%
    06:00 +28°C° 0 mm 2 m/s 753 mmHg 86%
    07:00 +28°C° 0 mm 2 m/s 753 mmHg 86%
    08:00 +30°C° 0 mm 2 m/s 753 mmHg 76%
    09:00 +32°C° 0 mm 2 m/s 754 mmHg 66%
    10:00 +34°C° 0 mm 1 m/s 754 mmHg 56%
    11:00 +36°C° 0 mm 2 m/s 753 mmHg 51%
    12:00 +38°C° 0 mm 3 m/s 753 mmHg 46%
    13:00 +39°C° 0 mm 3 m/s 752 mmHg 41%
    14:00 +38°C° 0 mm 4 m/s 751 mmHg 45%
    15:00 +37°C° 0 mm 5 m/s 751 mmHg 50%
    16:00 +36°C° 0 mm 6 m/s 750 mmHg 54%
    17:00 +34°C° 0 mm 5 m/s 750 mmHg 62%
    18:00 +32°C° 0 mm 5 m/s 751 mmHg 70%
    19:00 +29°C° 0 mm 5 m/s 751 mmHg 78%
    20:00 +29°C° 0 mm 4 m/s 752 mmHg 80%
    21:00 +29°C° 0 mm 4 m/s 753 mmHg 82%
    22:00 +28°C° 0 mm 3 m/s 753 mmHg 84%
    23:00 +28°C° 0 mm 3 m/s 753 mmHg 85%

    Poimâine, 28 Martie, Marţi

    Timp Temperatura Precipitaţii Vânt Presiune Umiditate
    00:00 +28°C° 0 mm 3 m/s 753 mmHg 86%
    01:00 +28°C° 0 mm 3 m/s 753 mmHg 87%
    02:00 +27°C° 0 mm 3 m/s 752 mmHg 88%
    03:00 +27°C° 0 mm 2 m/s 752 mmHg 90%
    04:00 +27°C° 0 mm 2 m/s 752 mmHg 91%
    05:00 +27°C° 0 mm 2 m/s 752 mmHg 90%
    06:00 +27°C° 0 mm 2 m/s 753 mmHg 89%
    07:00 +27°C° 0 mm 2 m/s 753 mmHg 88%
    08:00 +30°C° 0 mm 2 m/s 753 mmHg 76%
    09:00 +32°C° 0 mm 2 m/s 753 mmHg 64%
    10:00 +36°C° 0 mm 2 m/s 753 mmHg 53%
    11:00 +38°C° 0 mm 2 m/s 752 mmHg 47%
    12:00 +39°C° 0 mm 3 m/s 751 mmHg 41%
    13:00 +42°C° 0 mm 3 m/s 750 mmHg 36%
    14:00 +41°C° 0 mm 4 m/s 750 mmHg 42%
    15:00 +39°C° 0 mm 5 m/s 749 mmHg 47%
    16:00 +38°C° 0 mm 6 m/s 749 mmHg 53%
    17:00 +34°C° 0 mm 6 m/s 749 mmHg 62%
    18:00 +32°C° 0 mm 5 m/s 750 mmHg 70%
    19:00 +29°C° 0 mm 5 m/s 750 mmHg 78%
    20:00 +29°C° 0 mm 4 m/s 751 mmHg 81%
    21:00 +28°C° 0 mm 3 m/s 752 mmHg 83%
    22:00 +28°C° 0 mm 3 m/s 753 mmHg 86%
    23:00 +28°C° 0 mm 2 m/s 752 mmHg 88%

    29 Martie, Miercuri

    Timp Temperatura Precipitaţii Vânt Presiune Umiditate
    00:00 +27°C° 0 mm 2 m/s 752 mmHg 89%
    01:00 +27°C° 0 mm 2 m/s 752 mmHg 91%
    02:00 +27°C° 0 mm 2 m/s 752 mmHg 91%
    03:00 +27°C° 0 mm 2 m/s 751 mmHg 92%
    04:00 +27°C° 0 mm 2 m/s 751 mmHg 93%
    05:00 +27°C° 0 mm 2 m/s 751 mmHg 91%
    06:00 +27°C° 0 mm 2 m/s 752 mmHg 89%
    07:00 +28°C° 0 mm 2 m/s 752 mmHg 87%
    08:00 +29°C° 0 mm 2 m/s 752 mmHg 79%
    09:00 +31°C° 0 mm 2 m/s 753 mmHg 72%
    10:00 +33°C° 0 mm 1 m/s 753 mmHg 64%
    11:00 +36°C° 0 mm 2 m/s 752 mmHg 57%
    12:00 +37°C° 0 mm 3 m/s 751 mmHg 50%
    13:00 +39°C° 0 mm 3 m/s 750 mmHg 43%
    14:00 +37°C° 0,6 mm 4 m/s 750 mmHg 51%
    15:00 +36°C° 0,6 mm 5 m/s 749 mmHg 59%
    16:00 +34°C° 0,6 mm 5 m/s 749 mmHg 67%
    17:00 +32°C° 0,3 mm 5 m/s 750 mmHg 74%
    18:00 +30°C° 0,3 mm 4 m/s 750 mmHg 81%
    19:00 +28°C° 0,3 mm 3 m/s 751 mmHg 88%
    20:00 +28°C° 0,1 mm 3 m/s 751 mmHg 88%
    21:00 +28°C° 0,1 mm 3 m/s 752 mmHg 89%
    22:00 +28°C° 0,1 mm 3 m/s 752 mmHg 90%
    23:00 +28°C° 0,2 mm 3 m/s 752 mmHg 91%

    30 Martie, Joi

    Timp Temperatura Precipitaţii Vânt Presiune Umiditate
    00:00 +28°C° 0,2 mm 3 m/s 752 mmHg 92%
    01:00 +28°C° 0,2 mm 2 m/s 752 mmHg 94%
    02:00 +27°C° 0,9 mm 3 m/s 751 mmHg 94%
    03:00 +27°C° 0,9 mm 3 m/s 751 mmHg 94%
    04:00 +27°C° 0,9 mm 3 m/s 751 mmHg 95%
    05:00 +27°C° 0,8 mm 3 m/s 751 mmHg 94%
    06:00 +27°C° 0,8 mm 2 m/s 752 mmHg 94%
    07:00 +27°C° 0,8 mm 2 m/s 753 mmHg 94%
    08:00 +28°C° 0,5 mm 2 m/s 753 mmHg 89%
    09:00 +29°C° 0,5 mm 2 m/s 753 mmHg 84%
    10:00 +30°C° 0,5 mm 2 m/s 753 mmHg 79%
    11:00 +32°C° 0,1 mm 2 m/s 753 mmHg 68%
    12:00 +36°C° 0,1 mm 2 m/s 752 mmHg 57%
    13:00 +38°C° 0,1 mm 2 m/s 751 mmHg 46%
    14:00 +37°C° 0 mm 2 m/s 750 mmHg 47%
    15:00 +37°C° 0 mm 3 m/s 750 mmHg 48%
    16:00 +36°C° 0 mm 4 m/s 750 mmHg 49%
    17:00 +34°C° 0 mm 4 m/s 750 mmHg 58%
    18:00 +32°C° 0 mm 4 m/s 751 mmHg 66%
    19:00 +29°C° 0 mm 3 m/s 752 mmHg 75%
    20:00 +28°C° 0 mm 3 m/s 752 mmHg 77%
    21:00 +28°C° 0 mm 2 m/s 753 mmHg 79%
    22:00 +28°C° 0 mm 2 m/s 753 mmHg 82%
    23:00 +28°C° 0 mm 2 m/s 753 mmHg 83%

    31 Martie, Vineri

    Timp Temperatura Precipitaţii Vânt Presiune Umiditate
    00:00 +28°C° 0 mm 1 m/s 753 mmHg 84%
    01:00 +27°C° 0 mm 1 m/s 752 mmHg 86%
    02:00 +27°C° 0 mm 1 m/s 752 mmHg 87%
    03:00 +25°C° 0 mm 0 m/s 752 mmHg 88%
    04:00 +25°C° 0 mm 0 m/s 752 mmHg 89%
    05:00 +25°C° 0 mm 0 m/s 752 mmHg 86%
    06:00 +26°C° 0 mm 0 m/s 753 mmHg 84%
    07:00 +26°C° 0 mm 0 m/s 753 mmHg 81%
    08:00 +28°C° 0 mm 0 m/s 753 mmHg 72%
    09:00 +33°C° 0 mm 1 m/s 753 mmHg 63%
    10:00 +35°C° 0 mm 1 m/s 754 mmHg 54%
    11:00 +36°C° 0,3 mm 1 m/s 753 mmHg 51%
    12:00 +38°C° 0,3 mm 2 m/s 752 mmHg 49%
    13:00 +38°C° 0,3 mm 3 m/s 751 mmHg 47%
    14:00 +38°C° 0,1 mm 3 m/s 751 mmHg 48%
    15:00 +37°C° 0,1 mm 4 m/s 751 mmHg 50%
    16:00 +37°C° 0,1 mm 5 m/s 750 mmHg 51%
    17:00 +34°C° 0,3 mm 4 m/s 751 mmHg 62%
    18:00 +32°C° 0,3 mm 4 m/s 751 mmHg 74%
    19:00 +29°C° 0,3 mm 4 m/s 752 mmHg 85%
    20:00 +28°C° 0,6 mm 3 m/s 752 mmHg 86%
    21:00 +28°C° 0,6 mm 3 m/s 753 mmHg 87%
    22:00 +28°C° 0,6 mm 2 m/s 753 mmHg 88%
    23:00 +28°C° 0,1 mm 3 m/s 753 mmHg 88%
    Arată mai mult